Pagrindinis puslapis
METAR-TAF:

METAR-TAF

Oro uostai :

Noatak, Aliaska, Jungtinės Amerikos Valstijos

platuma: 67-34N, ilguma: 162-59W, Aukštis: 27 m

Dabartinis oras

Ataskaita buvo paskelbta 35 minutes, ne 20:56 UTC
Ramus vėjas
Temperatūra 3°C
Drėgmė 87%
Slėgis 1001 hPa
Matomumas: 16.1 km
Giedras dangus

METAR: PAWN 212056Z AUTO 00000KT 10SM CLR 03/01 A2955 RMK AO2 SLP018 T00330006 51007

Laikas: 13:31 (21:31 UTC)


TAF: trūkstamas

Orai ataskaitas ir orų prognozės (METAR, TAF).

turimą stotys yra geltonos ir raudonos taškus žemėlapyje.

Perkelti pele per norėdami pamatyti stoties vardą.

Tada spustelėkite, norėdami matyti oro stebėjimo ir prognozės.

Norėdami pakeisti žemėlapį: spustelėkite ant žalios mygtukų su juodo kryžiaus žemyn,; žalią mygtuką su brūkšneliu, jei norite nutolinti; arba žalių rodyklių gretimoms žemėlapius.


METAR-TAF: